GW0392 Weather Reports


Display with metric or nautical units.
time (UTC)temp
F
wind
direction
speed
MPH
gust
MPH
rain 1hr
in
rain 24hr
in
rain mn
in
humidity
%
barometer
mb
20260508025132 53 223 0.0 0.0 0.00 0.30 0.30 95 1015.6
20260508024628 53 226 0.0 0.0 0.00 0.30 0.30 94 1015.6
20260508024126 53 226 0.0 0.0 0.00 0.30 0.30 95 1015.6
20260508023621 53 226 0.0 0.0 0.00 0.30 0.30 95 1015.7
20260508023119 53 226 0.0 0.0 0.00 0.30 0.30 94 1015.7
20260508022615 54 226 0.0 0.0 0.00 0.30 0.30 94 1015.4
20260508022112 54 228 0.0 0.0 0.00 0.30 0.30 94 1015.5
20260508021608 54 228 0.0 0.0 0.00 0.30 0.30 94 1015.6
20260508021104 54 228 0.0 0.0 0.00 0.30 0.30 94 1015.8
20260508020602 54 228 0.0 0.0 0.00 0.30 0.30 94 1015.5
20260508020059 54 229 0.0 0.0 0.00 0.30 0.30 94 1015.5
20260508015557 55 229 0.0 0.0 0.00 0.30 0.30 94 1015.4
20260508015053 55 227 0.0 0.0 0.00 0.30 0.30 93 1015.4
20260508014549 55 221 0.0 0.0 0.00 0.30 0.30 93 1015.5
20260508014046 55 229 0.0 0.0 0.00 0.30 0.30 92 1015.3
20260508013542 55 229 0.0 0.0 0.00 0.30 0.30 92 1015.4
20260508013039 55 228 0.0 0.0 0.00 0.30 0.30 91 1015.2
20260508012537 55 234 0.0 0.0 0.00 0.30 0.30 91 1015.1
20260508012034 56 236 0.0 0.0 0.00 0.30 0.30 91 1015.1
20260508011532 56 233 0.0 0.0 0.00 0.30 0.30 90 1014.8
20260508011029 56 233 0.0 0.0 0.00 0.30 0.30 88 1014.8
20260508010526 57 233 0.0 0.0 0.00 0.30 0.30 89 1014.8
20260508010023 57 233 0.0 0.0 0.00 0.30 0.30 89 1014.6
20260508005520 57 233 0.0 0.0 0.00 0.30 0.30 88 1014.5
20260508005017 58 233 0.0 0.0 0.00 0.30 0.30 88 1014.5
20260508004513 58 233 0.0 0.0 0.00 0.30 0.30 86 1014.4
20260508004010 59 233 0.0 0.0 0.00 0.30 0.30 85 1014.5
20260508003506 59 233 0.0 0.0 0.00 0.30 0.30 85 1014.4
20260508003004 60 233 0.0 0.0 0.00 0.30 0.30 86 1014.1
20260508002459 59 233 0.0 0.0 0.00 0.30 0.30 85 1014.2
20260508001956 60 233 0.0 0.0 0.00 0.30 0.30 87 1014.5
20260508001452 60 233 0.0 0.0 0.00 0.30 0.30 85 1014.1
20260508000949 61 233 0.0 0.0 0.00 0.30 0.30 83 1014.3
20260508000444 61 233 0.0 0.0 0.00 0.30 0.30 80 1014.0
20260507235942 62 233 0.0 0.0 0.00 0.30 0.30 75 1013.9
20260507235438 62 233 0.0 0.0 0.00 0.30 0.30 74 1014.0
20260507234936 63 233 0.0 1.0 0.00 0.30 0.30 73 1014.2
20260507234433 63 233 0.0 1.0 0.00 0.30 0.30 72 1013.9
20260507233929 64 233 1.0 1.0 0.00 0.30 0.30 73 1013.8
20260507233426 64 233 0.0 1.0 0.00 0.30 0.30 66 1013.8
20260507232925 64 233 0.0 1.0 0.00 0.30 0.30 73 1013.8
20260507232420 64 233 0.0 1.0 0.00 0.30 0.30 67 1013.8
20260507231918 64 233 1.0 1.0 0.00 0.30 0.30 66 1013.8
20260507231414 64 233 0.0 1.0 0.00 0.30 0.30 70 1013.8
20260507230911 64 233 0.0 1.0 0.00 0.30 0.30 69 1013.8
20260507230408 65 233 0.0 0.0 0.00 0.30 0.30 71 1013.8
20260507225908 65 233 0.0 0.0 0.00 0.30 0.30 66 1013.8
20260507225405 66 243 0.0 1.0 0.00 0.30 0.30 62 1013.8
20260507224901 66 231 0.0 1.0 0.00 0.30 0.30 63 1013.7
20260507224357 66 229 0.0 1.0 0.00 0.30 0.30 63 1013.7
20260507223854 66 233 0.0 1.0 0.00 0.30 0.30 60 1013.6
20260507223350 66 236 1.0 2.0 0.00 0.30 0.30 63 1013.8
20260507222847 67 233 1.0 1.0 0.00 0.30 0.30 63 1013.8
20260507222343 67 233 0.0 1.0 0.00 0.30 0.30 61 1013.8
20260507221841 67 229 0.0 0.0 0.00 0.30 0.30 60 1013.5
20260507221337 66 233 1.0 1.0 0.00 0.30 0.30 62 1013.7
20260507220833 65 238 1.0 2.0 0.00 0.30 0.30 61 1013.8
20260507220332 66 226 1.0 1.0 0.00 0.30 0.30 67 1013.6
20260507215828 66 231 0.0 0.0 0.00 0.30 0.30 64 1013.7
20260507215325 66 231 0.0 1.0 0.00 0.30 0.30 62 1013.4
20260507214822 67 234 1.0 1.0 0.00 0.30 0.30 61 1013.7
20260507214319 67 233 0.0 0.0 0.00 0.30 0.30 60 1013.7
20260507213814 67 233 2.0 2.0 0.00 0.30 0.30 60 1013.3
20260507213311 67 233 0.0 1.0 0.00 0.30 0.30 59 1013.5
20260507212808 68 233 1.0 1.0 0.00 0.30 0.30 61 1013.4
20260507212307 68 236 0.0 1.0 0.00 0.30 0.30 59 1013.2
20260507211801 68 163 0.0 1.0 0.00 0.30 0.30 60 1013.4
20260507211257 67 235 1.0 1.0 0.00 0.30 0.30 59 1013.5
20260507210754 68 236 1.0 1.0 0.00 0.30 0.30 60 1013.5
20260507210251 68 227 0.0 1.0 0.00 0.30 0.30 65 1013.1
20260507205748 67 247 1.0 2.0 0.00 0.30 0.30 61 1013.2
20260507205245 66 233 1.0 1.0 0.00 0.30 0.30 63 1013.3
20260507204741 65 233 0.0 1.0 0.00 0.30 0.30 66 1013.3
20260507204239 65 232 0.0 0.0 0.00 0.30 0.30 68 1013.2
20260507203736 66 228 0.0 0.0 0.00 0.30 0.30 71 1013.1
20260507203233 66 231 0.0 1.0 0.00 0.30 0.30 64 1013.1
20260507202730 67 231 0.0 1.0 0.00 0.30 0.30 62 1012.9
20260507202226 67 233 1.0 2.0 0.00 0.30 0.30 62 1013.1
20260507201721 68 233 0.0 1.0 0.00 0.30 0.30 61 1013.2
20260507201218 69 209 1.0 1.0 0.00 0.30 0.30 62 1012.9
20260507200714 69 248 2.0 2.0 0.00 0.30 0.30 61 1013.0
20260507200210 69 241 2.0 2.0 0.00 0.30 0.30 62 1012.8
20260507195707 68 269 3.0 3.0 0.00 0.30 0.30 63 1013.0
20260507195204 69 264 2.0 2.0 0.00 0.30 0.30 62 1012.7
20260507194701 69 238 1.0 2.0 0.00 0.30 0.30 64 1012.9
20260507194156 69 233 0.0 0.0 0.00 0.30 0.30 66 1013.0
20260507193654 68 233 0.0 2.0 0.00 0.30 0.30 67 1012.9
20260507193151 68 267 1.0 1.0 0.00 0.30 0.30 64 1013.1
20260507192646 68 228 1.0 1.0 0.00 0.30 0.30 67 1013.0
20260507192144 68 240 1.0 1.0 0.00 0.30 0.30 66 1013.4
20260507191639 68 237 1.0 2.0 0.00 0.30 0.30 66 1013.3
20260507191136 68 246 0.0 2.0 0.00 0.30 0.30 67 1013.0
20260507190633 67 235 0.0 1.0 0.00 0.30 0.30 69 1013.3
20260507190132 68 235 0.0 2.0 0.00 0.30 0.30 70 1013.3
20260507185630 68 239 1.0 2.0 0.00 0.30 0.30 65 1013.3
20260507185126 69 236 0.0 1.0 0.00 0.30 0.30 65 1013.4
20260507184624 69 276 1.0 1.0 0.00 0.30 0.30 65 1013.6
20260507184122 69 233 0.0 1.0 0.00 0.30 0.30 70 1013.5
20260507183618 68 204 0.0 2.0 0.00 0.30 0.30 72 1013.4
20260507183115 67 224 0.0 2.0 0.00 0.30 0.30 68 1013.7
20260507182611 66 239 0.0 1.0 0.00 0.30 0.30 70 1013.7
20260507182107 65 300 1.0 1.0 0.00 0.30 0.30 70 1013.8
20260507181605 65 233 1.0 1.0 0.00 0.30 0.30 75 1013.6
20260507181101 65 225 0.0 2.0 0.00 0.30 0.30 73 1013.7
20260507180558 66 226 0.0 0.0 0.00 0.30 0.30 72 1013.9
20260507180054 64 233 0.0 1.0 0.00 0.30 0.30 73 1013.6
20260507175550 64 231 0.0 2.0 0.00 0.30 0.30 72 1013.8
20260507175048 66 239 1.0 2.0 0.00 0.30 0.30 70 1013.8
20260507174545 66 240 1.0 1.0 0.00 0.30 0.30 69 1013.9
20260507174043 66 235 0.0 1.0 0.00 0.30 0.30 71 1013.9
20260507173539 64 286 1.0 1.0 0.00 0.30 0.30 78 1013.9
20260507173037 64 220 0.0 1.0 0.00 0.30 0.30 80 1013.9
20260507172532 64 233 0.0 0.0 0.00 0.30 0.30 75 1014.3
20260507172030 63 231 0.0 0.0 0.00 0.30 0.30 76 1014.3
20260507171525 63 227 0.0 0.0 0.00 0.30 0.30 78 1014.5
20260507171023 63 230 1.0 1.0 0.00 0.30 0.30 76 1014.4
20260507170519 63 245 1.0 1.0 0.00 0.30 0.30 75 1014.3
20260507170016 64 241 1.0 1.0 0.00 0.30 0.30 74 1014.5
20260507165512 64 236 0.0 1.0 0.00 0.30 0.30 75 1014.3
20260507165009 63 261 1.0 2.0 0.00 0.30 0.30 77 1014.1
20260507164505 63 252 1.0 2.0 0.00 0.30 0.30 78 1014.3
20260507164002 62 235 1.0 2.0 0.00 0.30 0.30 77 1014.4
20260507163459 62 257 0.0 1.0 0.00 0.30 0.30 81 1014.2
20260507162956 61 266 0.0 0.0 0.00 0.30 0.30 82 1014.4
20260507162451 60 226 0.0 0.0 0.00 0.30 0.30 81 1014.2
20260507161948 60 229 0.0 0.0 0.00 0.30 0.30 81 1014.5
20260507161444 59 233 0.0 0.0 0.00 0.30 0.30 85 1014.2
20260507160942 59 227 0.0 0.0 0.00 0.30 0.30 86 1014.6
20260507160437 58 231 0.0 0.0 0.00 0.30 0.30 90 1014.7
20260507155933 58 226 0.0 0.0 0.00 0.30 0.30 92 1014.9
20260507155430 58 229 0.0 0.0 0.00 0.30 0.30 95 1014.5
20260507154927 58 228 0.0 0.0 0.00 0.30 0.30 95 1014.7
20260507154423 58 229 0.0 0.0 0.00 0.30 0.30 94 1014.7
20260507153921 58 226 0.0 0.0 0.00 0.30 0.30 93 1014.6
20260507153417 58 227 0.0 0.0 0.00 0.30 0.30 92 1014.3
20260507152914 57 228 0.0 0.0 0.00 0.30 0.30 87 1014.7
20260507152410 57 241 0.0 0.0 0.00 0.30 0.30 89 1014.5
20260507151906 57 231 0.0 0.0 0.00 0.30 0.30 90 1014.6
20260507151403 57 231 0.0 0.0 0.00 0.30 0.30 89 1014.3
20260507150900 57 233 0.0 0.0 0.00 0.30 0.30 91 1014.1
20260507150356 56 230 0.0 0.0 0.00 0.30 0.30 93 1014.2
20260507145852 56 233 0.0 0.0 0.00 0.30 0.30 96 1014.1
20260507145349 56 233 0.0 0.0 0.00 0.30 0.30 97 1014.1
20260507144846 56 227 0.0 0.0 0.00 0.30 0.30 98 1014.3
20260507144343 55 231 0.0 0.0 0.00 0.30 0.30 98 1014.4
20260507143840 55 229 0.0 0.0 0.00 0.30 0.30 99 1014.5
20260507143337 55 223 0.0 0.0 0.00 0.30 0.30 99 1014.3
20260507142833 56 230 0.0 0.0 0.00 0.30 0.30 99 1014.3
20260507142329 57 229 0.0 0.0 0.00 0.30 0.30 99 1014.2
20260507141826 56 229 0.0 0.0 0.00 0.30 0.30 99 1014.2
20260507141323 56 232 0.0 0.0 0.00 0.30 0.30 99 1013.9
20260507140819 56 229 0.0 0.0 0.00 0.30 0.30 99 1013.9
20260507140316 56 229 0.0 0.0 0.00 0.30 0.30 99 1014.1
20260507135814 56 229 0.0 0.0 0.00 0.30 0.30 99 1013.8
20260507135311 56 229 0.0 0.0 0.00 0.30 0.30 99 1014.0
20260507134808 57 229 0.0 0.0 0.00 0.30 0.30 99 1014.0
20260507134304 56 227 0.0 0.0 0.00 0.30 0.30 99 1013.6
20260507133800 55 229 0.0 0.0 0.00 0.30 0.30 99 1013.6
20260507133256 56 229 0.0 0.0 0.00 0.30 0.30 99 1013.8
20260507132754 56 227 0.0 0.0 0.00 0.30 0.30 99 1013.8
20260507132251 56 227 0.0 0.0 0.00 0.30 0.30 99 1013.7
20260507131748 55 229 0.0 0.0 0.00 0.30 0.30 99 1013.4
20260507131244 55 236 0.0 0.0 0.00 0.30 0.30 99 1013.3
20260507130741 55 232 0.0 0.0 0.00 0.30 0.30 99 1013.5
20260507130239 55 231 0.0 0.0 0.00 0.30 0.30 99 1013.4
20260507125737 55 229 0.0 0.0 0.00 0.30 0.30 99 1013.4
20260507125235 55 229 0.0 0.0 0.00 0.30 0.30 99 1013.0
20260507124731 55 229 0.0 0.0 0.00 0.30 0.30 99 1013.1
20260507124228 55 229 0.0 0.0 0.00 0.30 0.30 99 1013.2
20260507123727 55 236 0.0 0.0 0.00 0.30 0.30 99 1013.3
20260507123224 55 233 0.0 0.0 0.00 0.30 0.30 99 1013.1
20260507122719 55 228 0.0 0.0 0.00 0.30 0.30 99 1013.0
20260507122215 56 229 0.0 0.0 0.00 0.30 0.30 99 1013.1
20260507121710 56 233 0.0 0.0 0.00 0.30 0.30 99 1012.8
20260507121207 56 228 0.0 0.0 0.00 0.30 0.30 99 1012.9
20260507120703 56 229 0.0 0.0 0.00 0.30 0.30 99 1012.7
20260507120200 56 229 0.0 0.0 0.00 0.30 0.30 99 1012.7
20260507115656 56 229 0.0 0.0 0.00 0.30 0.30 99 1012.8
20260507115152 56 229 0.0 0.0 0.00 0.30 0.30 99 1012.5
20260507114648 56 228 0.0 0.0 0.00 0.30 0.30 99 1012.7
20260507114146 56 229 0.0 0.0 0.00 0.30 0.30 99 1012.9
20260507113643 56 228 0.0 0.0 0.00 0.30 0.30 99 1012.8
20260507113140 57 237 0.0 0.0 0.00 0.30 0.30 99 1012.7
20260507112638 57 227 0.0 0.0 0.00 0.30 0.30 99 1012.5
20260507112134 57 229 0.0 0.0 0.00 0.30 0.30 99 1012.4
20260507111631 57 231 0.0 0.0 0.00 0.30 0.30 99 1012.1
20260507111128 57 230 0.0 0.0 0.00 0.30 0.30 99 1012.1
20260507110624 58 230 0.0 0.0 0.00 0.30 0.30 99 1012.2
20260507110121 58 228 0.0 0.0 0.00 0.30 0.30 99 1012.2
20260507105618 58 227 0.0 0.0 0.00 0.30 0.30 99 1012.0
20260507105113 58 229 0.0 0.0 0.00 0.30 0.30 99 1011.9
20260507104611 58 229 0.0 0.0 0.00 0.30 0.30 99 1011.6
20260507104107 58 225 0.0 0.0 0.00 0.30 0.30 99 1011.7
20260507103604 58 227 0.0 0.0 0.00 0.30 0.30 99 1011.6
20260507103100 58 228 0.0 0.0 0.00 0.30 0.30 99 1011.7
20260507102557 57 231 0.0 0.0 0.00 0.30 0.30 99 1011.6
20260507102053 58 233 0.0 0.0 0.07 0.30 0.30 99 1011.3
20260507101548 59 229 0.0 0.0 0.07 0.30 0.30 99 1011.5
20260507101045 59 231 0.0 0.0 0.00 0.29 0.29 99 1011.6
20260507100542 59 237 0.0 0.0 0.00 0.29 0.29 99 1011.6
20260507100041 59 229 0.0 1.0 0.00 0.29 0.29 99 1011.7
20260507095538 59 231 0.0 0.0 0.00 0.29 0.29 99 1011.8
20260507095035 59 229 0.0 0.0 0.00 0.29 0.29 99 1012.0
20260507094531 59 228 0.0 0.0 0.00 0.29 0.29 99 1011.7
20260507094028 59 229 0.0 0.0 0.05 0.29 0.29 99 1011.8
20260507093525 59 229 0.0 0.0 0.05 0.29 0.29 99 1011.8
20260507093024 59 229 0.0 0.0 0.24 0.28 0.28 99 1011.8
20260507092520 59 227 0.0 0.0 0.35 0.27 0.27 99 1011.8
20260507092017 59 226 0.0 0.0 0.12 0.22 0.22 99 1011.9
20260507091514 59 251 1.0 1.0 0.12 0.21 0.21 99 1012.2
20260507091010 59 236 0.0 1.0 0.12 0.20 0.20 99 1012.1
20260507090505 59 227 0.0 0.0 0.05 0.19 0.19 99 1012.2
20260507090002 59 229 0.0 0.0 0.00 0.18 0.18 99 1011.8
20260507085500 59 229 0.0 0.0 0.07 0.18 0.18 99 1011.4
20260507084956 59 231 0.0 1.0 0.07 0.18 0.18 99 1011.1
20260507084453 59 228 0.0 0.0 0.07 0.17 0.17 99 1011.0
20260507083950 59 227 0.0 0.0 0.12 0.16 0.16 99 1011.4
20260507083446 59 231 0.0 1.0 0.47 0.16 0.16 99 1011.3
20260507082943 59 225 0.0 0.0 0.35 0.13 0.13 99 1012.1
20260507082439 59 223 0.0 0.0 0.00 0.07 0.07 99 1012.5
20260507081935 60 233 0.0 0.0 0.07 0.07 0.07 99 1012.1
20260507081432 60 230 0.0 0.0 0.07 0.07 0.07 99 1011.6
20260507080929 60 231 0.0 0.0 0.00 0.06 0.06 99 1011.9
20260507080425 61 230 0.0 0.0 0.00 0.06 0.06 99 1011.7
20260507075920 61 229 0.0 0.0 0.00 0.06 0.06 99 1011.7
20260507075417 61 227 0.0 0.0 0.00 0.06 0.06 99 1012.0
20260507074914 61 236 0.0 0.0 0.00 0.06 0.06 99 1011.8
20260507074410 61 229 0.0 0.0 0.00 0.06 0.06 99 1011.8
20260507073908 61 228 0.0 0.0 0.00 0.06 0.06 99 1011.4
20260507073404 61 230 0.0 0.0 0.00 0.06 0.06 99 1011.2
20260507072901 62 241 0.0 0.0 0.00 0.06 0.06 99 1011.4
20260507072359 62 228 0.0 0.0 0.00 0.06 0.06 99 1011.5
20260507071856 63 228 0.0 0.0 0.00 0.06 0.06 99 1011.6
20260507071353 64 231 0.0 0.0 0.00 0.06 0.06 99 1011.0
20260507070849 64 228 0.0 0.0 0.00 0.06 0.06 99 1011.0
20260507070347 64 227 0.0 0.0 0.00 0.06 0.06 99 1010.9
20260507065844 64 229 0.0 0.0 0.00 0.06 0.06 99 1011.1
20260507065340 64 226 0.0 0.0 0.00 0.06 0.06 99 1011.5
20260507064837 64 227 0.0 0.0 0.00 0.06 0.06 99 1011.7
20260507064336 64 226 0.0 0.0 0.00 0.06 0.06 99 1011.6
20260507063833 64 226 0.0 0.0 0.00 0.06 0.06 99 1011.7
20260507063330 64 229 0.0 0.0 0.00 0.06 0.06 99 1011.6
20260507062826 64 229 0.0 0.0 0.00 0.06 0.06 99 1011.7
20260507062324 64 226 0.0 0.0 0.00 0.06 0.06 99 1012.0
20260507061822 64 229 0.0 0.0 0.00 0.06 0.06 99 1012.2
20260507061319 64 229 0.0 0.0 0.00 0.06 0.06 99 1011.9
20260507060818 64 229 0.0 0.0 0.00 0.06 0.06 99 1011.8
20260507060314 64 229 0.0 0.0 0.00 0.06 0.06 99 1011.9
20260507055811 64 227 0.0 1.0 0.00 0.06 0.06 99 1012.3
20260507055306 64 225 0.0 0.0 0.00 0.06 0.06 99 1012.7
20260507054803 64 225 0.0 0.0 0.00 0.06 0.06 99 1012.5
20260507054259 64 229 0.0 0.0 0.00 0.06 0.06 99 1011.9
20260507053756 64 229 0.0 0.0 0.00 0.06 0.06 99 1012.1
20260507053254 64 223 0.0 0.0 0.00 0.06 0.06 99 1012.1
20260507052753 64 227 0.0 0.0 0.00 0.06 0.06 99 1011.8
20260507052249 64 229 0.0 0.0 0.00 0.06 0.06 99 1012.0
20260507051747 64 229 0.0 0.0 0.00 0.06 0.06 99 1011.9
20260507051243 64 229 0.0 0.0 0.00 0.06 0.06 99 1011.6
20260507050740 64 229 0.0 0.0 0.00 0.06 0.06 99 1011.4
20260507050237 64 225 0.0 0.0 0.00 0.06 0.06 99 1011.8
20260507045734 64 228 0.0 0.0 0.00 0.06 0.06 99 1011.7
20260507045230 64 229 0.0 0.0 0.00 0.06 0.06 99 1011.4
20260507044727 64 229 0.0 0.0 0.00 0.06 0.06 99 1011.6
20260507044224 64 221 0.0 0.0 0.00 0.06 0.06 99 1011.9
20260507043720 64 229 0.0 0.0 0.00 0.06 0.06 99 1012.3
20260507043217 64 228 0.0 0.0 0.00 0.06 0.06 99 1012.5
20260507042714 64 226 0.0 0.0 0.07 0.06 0.06 99 1012.7
20260507042208 64 227 0.0 0.0 0.07 0.06 0.06 99 1012.5
20260507041706 64 231 0.0 0.0 0.05 0.05 0.05 99 1012.5
20260507041202 64 228 0.0 0.0 0.24 0.05 0.05 99 1012.7
20260507040659 64 233 0.0 0.0 0.17 0.03 0.03 99 1012.5
20260507040155 64 235 0.0 0.0 0.00 0.00 0.00 99 1012.7
20260507035652 64 229 0.0 0.0 0.00 2.08 2.08 99 1012.4
20260507035148 64 236 0.0 0.0 0.00 2.08 2.08 99 1012.2
20260507034644 64 226 0.0 0.0 0.00 2.08 2.08 99 1012.7
20260507034142 64 225 0.0 0.0 0.00 2.08 2.08 99 1012.3
20260507033640 64 237 0.0 1.0 0.00 2.08 2.08 99 1012.7
20260507033137 64 226 0.0 0.0 0.00 2.08 2.08 99 1013.1
20260507032635 64 219 0.0 1.0 0.00 2.08 2.08 99 1013.2
20260507032130 64 218 0.0 0.0 0.00 2.08 2.08 99 1012.8
20260507031627 64 228 0.0 0.0 0.07 2.08 2.08 99 1012.9
20260507031124 64 228 0.0 0.0 0.07 2.08 2.08 99 1012.9
20260507030621 64 233 0.0 0.0 0.00 2.07 2.07 99 1012.5
20260507030119 64 225 0.0 0.0 0.00 2.07 2.07 99 1012.5
20260507025616 64 227 0.0 0.0 0.12 2.07 2.07 99 1012.7